| time (UTC) | temp F | wind direction | speed knots | gust knots | rain 1hr in | rain 24hr in | rain mn in | humidity % | barometer mb |
| 20260509221618 | 55 | 201 | 0.0 | 1.7 | 0.19 | 0.57 | 0.57 | 97 | 1011.1 |
| 20260509221539 | 55 | 0 | 0.0 | 1.7 | 0.18 | 0.57 | 0.57 | 97 | 1010.5 |
| 20260509221337 | 55 | 286 | 0.9 | 0.9 | 0.19 | 0.57 | 0.57 | 97 | 1011.0 |
| 20260509220846 | 55 | 286 | 0.0 | 0.9 | 0.18 | 0.56 | 0.56 | 97 | 1011.3 |
| 20260509220357 | 55 | 286 | 0.0 | 1.7 | 0.16 | 0.54 | 0.54 | 97 | 1011.4 |
| 20260509220040 | 55 | 0 | 0.0 | 1.7 | 0.16 | 0.52 | 0.52 | 97 | 1010.9 |
| 20260509215844 | 55 | 286 | 0.0 | 1.7 | 0.15 | 0.52 | 0.52 | 97 | 1011.5 |
| 20260509215355 | 56 | 286 | 0.0 | 1.7 | 0.11 | 0.47 | 0.47 | 97 | 1011.6 |
| 20260509214906 | 56 | 286 | 0.0 | 1.7 | 0.10 | 0.46 | 0.46 | 97 | 1011.6 |
| 20260509214613 | 55 | 286 | 0.0 | 2.6 | 0.09 | 0.44 | 0.44 | 97 | 1011.4 |
| 20260509214536 | 55 | 0 | 0.0 | 2.6 | 0.09 | 0.44 | 0.44 | 97 | 1010.9 |
| 20260509214354 | 56 | 269 | 0.9 | 2.6 | 0.08 | 0.43 | 0.43 | 97 | 1011.4 |
| 20260509213844 | 56 | 280 | 0.9 | 2.6 | 0.08 | 0.42 | 0.42 | 97 | 1011.2 |
| 20260509213417 | 56 | 38 | 0.0 | 1.7 | 0.07 | 0.41 | 0.41 | 97 | 1011.3 |
| 20260509213121 | 55 | 38 | 0.9 | 1.7 | 0.06 | 0.40 | 0.40 | 97 | 1011.5 |
| 20260509213043 | 55 | 38 | 0.0 | 1.7 | 0.06 | 0.40 | 0.40 | 96 | 1011.2 |
| 20260509212843 | 56 | 288 | 0.9 | 1.7 | 0.05 | 0.39 | 0.39 | 97 | 1011.9 |
| 20260509212353 | 56 | 350 | 0.0 | 0.9 | 0.06 | 0.39 | 0.39 | 97 | 1011.6 |
| 20260509211843 | 56 | 350 | 0.0 | 2.6 | 0.06 | 0.39 | 0.39 | 97 | 1011.4 |
| 20260509211616 | 56 | 350 | 0.0 | 2.6 | 0.07 | 0.39 | 0.39 | 97 | 1011.4 |
| 20260509211540 | 56 | 0 | 0.0 | 2.6 | 0.06 | 0.38 | 0.38 | 96 | 1011.0 |
| 20260509211340 | 56 | 350 | 0.9 | 2.6 | 0.06 | 0.38 | 0.38 | 97 | 1011.7 |
| 20260509210848 | 56 | 19 | 0.0 | 1.7 | 0.06 | 0.38 | 0.38 | 97 | 1011.8 |
| 20260509210415 | 56 | 304 | 0.0 | 0.9 | 0.06 | 0.38 | 0.38 | 97 | 1011.7 |
| 20260509210121 | 56 | 228 | 0.0 | 0.0 | 0.05 | 0.37 | 0.37 | 97 | 1011.8 |
| 20260509210041 | 56 | 0 | 0.0 | 0.0 | 0.05 | 0.37 | 0.37 | 96 | 1011.2 |
| 20260509205846 | 56 | 228 | 0.0 | 0.0 | 0.05 | 0.37 | 0.37 | 97 | 1011.8 |
| 20260509205413 | 57 | 228 | 0.0 | 0.9 | 0.04 | 0.36 | 0.36 | 97 | 1011.7 |
| 20260509204902 | 57 | 228 | 0.0 | 0.9 | 0.04 | 0.36 | 0.36 | 97 | 1011.9 |
| 20260509204609 | 56 | 228 | 0.0 | 0.9 | 0.03 | 0.35 | 0.35 | 97 | 1012.0 |
| 20260509204538 | 56 | 0 | 0.0 | 0.9 | 0.03 | 0.35 | 0.35 | 96 | 1011.4 |
| 20260509204351 | 57 | 228 | 0.0 | 0.9 | 0.03 | 0.35 | 0.35 | 97 | 1012.0 |
| 20260509203845 | 57 | 228 | 0.0 | 0.9 | 0.02 | 0.34 | 0.34 | 97 | 1011.9 |
| 20260509203355 | 57 | 314 | 0.0 | 0.9 | 0.03 | 0.34 | 0.34 | 97 | 1011.8 |
| 20260509203038 | 56 | 0 | 0.0 | 0.9 | 0.03 | 0.34 | 0.34 | 96 | 1011.1 |
| 20260509203002 | 56 | 314 | 0.0 | 0.9 | 0.03 | 0.34 | 0.34 | 97 | 1011.7 |
| 20260509202901 | 57 | 314 | 0.0 | 0.9 | 0.03 | 0.34 | 0.34 | 97 | 1011.8 |
| 20260509202351 | 57 | 314 | 0.0 | 0.9 | 0.03 | 0.33 | 0.33 | 97 | 1012.0 |
| 20260509201621 | 56 | 314 | 0.0 | 1.7 | 0.03 | 0.32 | 0.32 | 96 | 1011.8 |
| 20260509201543 | 57 | 0 | 0.0 | 1.7 | 0.03 | 0.32 | 0.32 | 96 | 1011.3 |
| 20260509201347 | 57 | 314 | 0.0 | 1.7 | 0.03 | 0.32 | 0.32 | 96 | 1011.8 |
| 20260509200854 | 57 | 314 | 0.9 | 1.7 | 0.04 | 0.32 | 0.32 | 96 | 1011.9 |
| 20260509200343 | 57 | 336 | 0.0 | 0.9 | 0.04 | 0.32 | 0.32 | 96 | 1011.7 |
| 20260509200121 | 57 | 336 | 0.0 | 0.9 | 0.05 | 0.32 | 0.32 | 96 | 1011.5 |
| 20260509200041 | 57 | 0 | 0.0 | 1.7 | 0.05 | 0.32 | 0.32 | 96 | 1011.0 |
| 20260509195847 | 57 | 336 | 0.0 | 0.9 | 0.05 | 0.32 | 0.32 | 96 | 1011.6 |
| 20260509195337 | 57 | 290 | 0.0 | 1.7 | 0.06 | 0.32 | 0.32 | 96 | 1011.4 |
| 20260509194846 | 57 | 290 | 0.0 | 1.7 | 0.07 | 0.32 | 0.32 | 96 | 1011.2 |
| 20260509194610 | 57 | 290 | 0.9 | 1.7 | 0.07 | 0.32 | 0.32 | 96 | 1011.2 |
| 20260509194540 | 57 | 0 | 0.9 | 2.6 | 0.07 | 0.32 | 0.32 | 95 | 1010.6 |
| 20260509194354 | 57 | 292 | 0.9 | 2.6 | 0.08 | 0.32 | 0.32 | 96 | 1011.1 |
| 20260509193844 | 57 | 30 | 1.7 | 2.6 | 0.08 | 0.32 | 0.32 | 96 | 1011.0 |
| 20260509193356 | 57 | 281 | 0.0 | 0.9 | 0.11 | 0.31 | 0.31 | 96 | 1011.8 |
| 20260509193120 | 57 | 281 | 0.0 | 0.9 | 0.12 | 0.31 | 0.31 | 96 | 1011.7 |
| 20260509193040 | 57 | 0 | 0.0 | 0.9 | 0.13 | 0.31 | 0.31 | 95 | 1011.0 |
| 20260509192842 | 57 | 281 | 0.0 | 0.9 | 0.14 | 0.31 | 0.31 | 96 | 1011.6 |
| 20260509192352 | 57 | 281 | 0.0 | 1.7 | 0.16 | 0.30 | 0.30 | 95 | 1011.7 |
| 20260509191839 | 57 | 281 | 0.0 | 2.6 | 0.19 | 0.29 | 0.29 | 95 | 1011.8 |
| 20260509191609 | 57 | 281 | 0.0 | 2.6 | 0.19 | 0.28 | 0.28 | 95 | 1011.8 |
| 20260509191537 | 57 | 0 | 0.0 | 2.6 | 0.20 | 0.29 | 0.29 | 95 | 1011.1 |
| 20260509191412 | 58 | 281 | 0.9 | 2.6 | 0.20 | 0.29 | 0.29 | 95 | 1012.0 |
| 20260509190840 | 58 | 271 | 0.0 | 1.7 | 0.22 | 0.28 | 0.28 | 95 | 1012.0 |
| 20260509190411 | 58 | 271 | 0.0 | 1.7 | 0.24 | 0.27 | 0.27 | 95 | 1012.2 |
| 20260509190116 | 57 | 271 | 0.0 | 1.7 | 0.25 | 0.27 | 0.27 | 94 | 1012.2 |
| 20260509190043 | 57 | 271 | 0.0 | 1.7 | 0.25 | 0.27 | 0.27 | 94 | 1011.6 |
| 20260509185837 | 58 | 302 | 0.0 | 0.9 | 0.25 | 0.27 | 0.27 | 94 | 1012.1 |
| 20260509185347 | 58 | 302 | 0.0 | 0.9 | 0.24 | 0.26 | 0.26 | 94 | 1012.1 |
| 20260509184836 | 58 | 302 | 0.0 | 0.9 | 0.23 | 0.25 | 0.25 | 93 | 1012.2 |
| 20260509184604 | 57 | 302 | 0.0 | 2.6 | 0.23 | 0.25 | 0.25 | 93 | 1012.1 |
| 20260509184540 | 57 | 0 | 0.0 | 2.6 | 0.23 | 0.25 | 0.25 | 92 | 1011.5 |
| 20260509184346 | 58 | 302 | 0.0 | 2.6 | 0.22 | 0.24 | 0.24 | 93 | 1012.2 |
| 20260509183855 | 58 | 311 | 0.9 | 2.6 | 0.21 | 0.23 | 0.23 | 92 | 1012.3 |
| 20260509183345 | 58 | 236 | 0.0 | 2.6 | 0.18 | 0.20 | 0.20 | 91 | 1012.2 |
| 20260509183111 | 58 | 236 | 0.0 | 2.6 | 0.16 | 0.18 | 0.18 | 91 | 1012.3 |
| 20260509183054 | 58 | 236 | 0.9 | 2.6 | 0.16 | 0.18 | 0.18 | 90 | 1011.7 |
| 20260509182914 | 59 | 236 | 1.7 | 2.6 | 0.15 | 0.17 | 0.17 | 90 | 1012.2 |
| 20260509182343 | 59 | 226 | 0.9 | 2.6 | 0.12 | 0.14 | 0.14 | 88 | 1011.9 |
| 20260509181853 | 60 | 228 | 1.7 | 2.6 | 0.08 | 0.10 | 0.10 | 87 | 1011.9 |
| 20260509181622 | 60 | 167 | 0.0 | 3.5 | 0.07 | 0.09 | 0.09 | 87 | 1011.7 |
| 20260509181601 | 60 | 0 | 0.0 | 3.5 | 0.07 | 0.09 | 0.09 | 86 | 1011.0 |
| 20260509181344 | 61 | 167 | 0.9 | 3.5 | 0.07 | 0.09 | 0.09 | 86 | 1011.6 |
| 20260509180854 | 62 | 248 | 1.7 | 4.3 | 0.04 | 0.06 | 0.06 | 82 | 1011.5 |
| 20260509180404 | 63 | 167 | 1.7 | 4.3 | 0.00 | 0.02 | 0.02 | 76 | 1011.4 |
| 20260509180107 | 63 | 165 | 1.7 | 4.3 | 0.00 | 0.02 | 0.02 | 74 | 1011.3 |
| 20260509180036 | 63 | 206 | 0.9 | 7.0 | 0.00 | 0.02 | 0.02 | 74 | 1010.6 |
| 20260509175846 | 63 | 197 | 1.7 | 7.0 | 0.00 | 0.02 | 0.02 | 75 | 1011.1 |
| 20260509175354 | 64 | 155 | 1.7 | 7.0 | 0.00 | 0.02 | 0.02 | 73 | 1011.0 |
| 20260509174843 | 64 | 254 | 0.9 | 4.3 | 0.00 | 0.02 | 0.02 | 71 | 1010.8 |
| 20260509174614 | 64 | 233 | 0.9 | 4.3 | 0.00 | 0.02 | 0.02 | 71 | 1011.0 |
| 20260509174543 | 64 | 234 | 1.7 | 6.1 | 0.00 | 0.02 | 0.02 | 70 | 1010.4 |
| 20260509174416 | 65 | 227 | 2.6 | 5.2 | 0.00 | 0.02 | 0.02 | 71 | 1011.0 |
| 20260509173905 | 65 | 287 | 1.7 | 5.2 | 0.00 | 0.02 | 0.02 | 71 | 1010.9 |
| 20260509173354 | 65 | 232 | 1.7 | 3.5 | 0.00 | 0.02 | 0.02 | 72 | 1010.8 |
| 20260509173117 | 64 | 229 | 0.9 | 4.3 | 0.00 | 0.02 | 0.02 | 71 | 1010.8 |
| 20260509173039 | 64 | 233 | 0.9 | 4.3 | 0.00 | 0.02 | 0.02 | 70 | 1010.2 |
| 20260509172838 | 65 | 317 | 0.9 | 4.3 | 0.00 | 0.02 | 0.02 | 71 | 1010.9 |
| 20260509172349 | 65 | 232 | 2.6 | 4.3 | 0.00 | 0.02 | 0.02 | 70 | 1011.0 |
| 20260509171841 | 65 | 162 | 0.9 | 7.8 | 0.00 | 0.02 | 0.02 | 72 | 1010.9 |
| 20260509171610 | 64 | 215 | 0.9 | 7.8 | 0.00 | 0.02 | 0.02 | 72 | 1011.0 |
| 20260509171547 | 64 | 0 | 0.9 | 7.8 | 0.00 | 0.02 | 0.02 | 70 | 1010.3 |
| 20260509171351 | 65 | 267 | 1.7 | 7.8 | 0.00 | 0.02 | 0.02 | 70 | 1011.0 |
| 20260509170902 | 65 | 214 | 1.7 | 5.2 | 0.00 | 0.02 | 0.02 | 70 | 1011.2 |
| 20260509170352 | 65 | 159 | 2.6 | 5.2 | 0.00 | 0.02 | 0.02 | 70 | 1011.3 |
| 20260509170117 | 65 | 217 | 1.7 | 5.2 | 0.00 | 0.02 | 0.02 | 70 | 1011.3 |
| 20260509170038 | 65 | 208 | 1.7 | 5.2 | 0.00 | 0.02 | 0.02 | 70 | 1010.7 |
| 20260509165839 | 65 | 263 | 1.7 | 4.3 | 0.00 | 0.02 | 0.02 | 69 | 1011.3 |
| 20260509165410 | 66 | 229 | 2.6 | 6.1 | 0.00 | 0.02 | 0.02 | 68 | 1011.4 |
| 20260509164838 | 66 | 149 | 2.6 | 6.1 | 0.00 | 0.02 | 0.02 | 71 | 1011.4 |
| 20260509164607 | 65 | 221 | 0.9 | 3.5 | 0.00 | 0.02 | 0.02 | 71 | 1011.4 |
| 20260509164539 | 65 | 169 | 0.0 | 6.1 | 0.00 | 0.02 | 0.02 | 71 | 1010.8 |
| 20260509164350 | 65 | 186 | 0.9 | 6.1 | 0.00 | 0.02 | 0.02 | 69 | 1011.4 |
| 20260509163844 | 65 | 180 | 1.7 | 6.1 | 0.00 | 0.02 | 0.02 | 72 | 1011.6 |
| 20260509163355 | 64 | 240 | 1.7 | 5.2 | 0.00 | 0.02 | 0.02 | 74 | 1011.7 |
| 20260509163116 | 63 | 144 | 1.7 | 4.3 | 0.00 | 0.02 | 0.02 | 77 | 1011.7 |
| 20260509163040 | 63 | 53 | 0.9 | 4.3 | 0.00 | 0.02 | 0.02 | 76 | 1011.1 |
| 20260509162843 | 63 | 313 | 0.9 | 1.7 | 0.00 | 0.02 | 0.02 | 77 | 1011.9 |
| 20260509162412 | 63 | 238 | 0.9 | 3.5 | 0.00 | 0.02 | 0.02 | 77 | 1012.1 |
| 20260509161901 | 63 | 182 | 2.6 | 3.5 | 0.00 | 0.02 | 0.02 | 77 | 1012.1 |
| 20260509161619 | 62 | 234 | 0.0 | 1.7 | 0.00 | 0.02 | 0.02 | 82 | 1012.2 |
| 20260509161539 | 61 | 287 | 0.0 | 1.7 | 0.00 | 0.02 | 0.02 | 82 | 1011.7 |
| 20260509161346 | 62 | 205 | 0.9 | 1.7 | 0.00 | 0.02 | 0.02 | 82 | 1012.3 |
| 20260509160836 | 61 | 217 | 0.9 | 2.6 | 0.00 | 0.02 | 0.02 | 82 | 1012.5 |
| 20260509160347 | 61 | 215 | 0.9 | 2.6 | 0.00 | 0.02 | 0.02 | 83 | 1012.5 |
| 20260509160040 | 60 | 207 | 0.0 | 2.6 | 0.00 | 0.02 | 0.02 | 81 | 1012.0 |
| 20260509155913 | 60 | 155 | 0.9 | 1.7 | 0.00 | 0.02 | 0.02 | 83 | 1012.5 |
| 20260509155339 | 60 | 113 | 0.9 | 2.6 | 0.00 | 0.02 | 0.02 | 84 | 1012.5 |
| 20260509154909 | 59 | 238 | 0.9 | 2.6 | 0.00 | 0.02 | 0.02 | 84 | 1012.6 |
| 20260509154613 | 59 | 207 | 0.0 | 1.7 | 0.00 | 0.02 | 0.02 | 84 | 1012.6 |
| 20260509154538 | 59 | 0 | 0.0 | 2.6 | 0.00 | 0.02 | 0.02 | 84 | 1012.1 |
| 20260509154358 | 59 | 219 | 0.9 | 1.7 | 0.00 | 0.02 | 0.02 | 86 | 1012.7 |
| 20260509153845 | 59 | 219 | 0.9 | 1.7 | 0.00 | 0.02 | 0.02 | 85 | 1012.5 |
| 20260509153354 | 58 | 224 | 0.0 | 1.7 | 0.00 | 0.02 | 0.02 | 86 | 1012.4 |
| 20260509153118 | 58 | 212 | 0.9 | 1.7 | 0.00 | 0.02 | 0.02 | 86 | 1012.5 |
| 20260509153044 | 58 | 212 | 0.0 | 1.7 | 0.00 | 0.02 | 0.02 | 86 | 1012.0 |
| 20260509152841 | 58 | 182 | 0.9 | 1.7 | 0.00 | 0.02 | 0.02 | 87 | 1012.6 |
| 20260509152351 | 58 | 126 | 0.9 | 1.7 | 0.00 | 0.02 | 0.02 | 88 | 1012.7 |
| 20260509151900 | 58 | 156 | 0.9 | 1.7 | 0.00 | 0.02 | 0.02 | 87 | 1012.8 |
| 20260509151605 | 58 | 144 | 0.0 | 2.6 | 0.00 | 0.02 | 0.02 | 87 | 1012.8 |
| 20260509151544 | 58 | 0 | 0.0 | 2.6 | 0.00 | 0.02 | 0.02 | 86 | 1012.3 |
| 20260509151350 | 58 | 129 | 0.0 | 2.6 | 0.00 | 0.02 | 0.02 | 87 | 1012.8 |
| 20260509150839 | 58 | 96 | 0.9 | 3.5 | 0.00 | 0.02 | 0.02 | 87 | 1012.8 |
| 20260509150348 | 58 | 150 | 0.0 | 3.5 | 0.00 | 0.02 | 0.02 | 87 | 1012.6 |
| 20260509150112 | 57 | 88 | 0.9 | 3.5 | 0.00 | 0.02 | 0.02 | 87 | 1012.6 |
| 20260509150043 | 57 | 105 | 0.9 | 3.5 | 0.00 | 0.02 | 0.02 | 86 | 1012.2 |
| 20260509145854 | 58 | 222 | 0.9 | 2.6 | 0.00 | 0.02 | 0.02 | 87 | 1012.6 |
| 20260509145403 | 58 | 206 | 0.9 | 2.6 | 0.00 | 0.02 | 0.02 | 88 | 1012.8 |
| 20260509144851 | 58 | 234 | 0.0 | 2.6 | 0.00 | 0.02 | 0.02 | 88 | 1012.7 |
| 20260509144619 | 58 | 203 | 0.0 | 2.6 | 0.00 | 0.02 | 0.02 | 87 | 1012.7 |
| 20260509144542 | 58 | 213 | 0.0 | 3.5 | 0.00 | 0.02 | 0.02 | 86 | 1012.1 |
| 20260509144340 | 58 | 197 | 0.0 | 2.6 | 0.00 | 0.02 | 0.02 | 87 | 1012.6 |
| 20260509143848 | 58 | 157 | 0.9 | 4.3 | 0.00 | 0.02 | 0.02 | 88 | 1012.6 |
| 20260509143358 | 58 | 225 | 0.0 | 4.3 | 0.00 | 0.02 | 0.02 | 89 | 1012.7 |
| 20260509143121 | 58 | 193 | 1.7 | 4.3 | 0.00 | 0.02 | 0.02 | 89 | 1012.7 |
| 20260509143039 | 58 | 176 | 0.9 | 3.5 | 0.00 | 0.02 | 0.02 | 88 | 1012.1 |
| 20260509142840 | 58 | 219 | 0.9 | 3.5 | 0.00 | 0.02 | 0.02 | 90 | 1012.6 |
| 20260509142350 | 58 | 225 | 0.9 | 3.5 | 0.00 | 0.02 | 0.02 | 90 | 1012.6 |
| 20260509141840 | 58 | 94 | 0.9 | 2.6 | 0.00 | 0.02 | 0.02 | 91 | 1012.6 |
| 20260509141608 | 57 | 211 | 0.0 | 1.7 | 0.00 | 0.02 | 0.02 | 91 | 1012.7 |
| 20260509141539 | 57 | 155 | 0.0 | 1.7 | 0.00 | 0.02 | 0.02 | 91 | 1012.1 |
| 20260509141348 | 57 | 220 | 0.9 | 1.7 | 0.00 | 0.02 | 0.02 | 91 | 1012.7 |
| 20260509140837 | 57 | 153 | 0.9 | 1.7 | 0.00 | 0.02 | 0.02 | 92 | 1012.6 |
| 20260509140348 | 57 | 81 | 0.9 | 2.6 | 0.00 | 0.02 | 0.02 | 93 | 1012.7 |
| 20260509140121 | 56 | 149 | 0.0 | 1.7 | 0.00 | 0.02 | 0.02 | 93 | 1012.5 |
| 20260509140051 | 56 | 0 | 0.0 | 2.6 | 0.00 | 0.02 | 0.02 | 93 | 1011.9 |
| 20260509135855 | 56 | 146 | 0.0 | 1.7 | 0.00 | 0.02 | 0.02 | 94 | 1012.5 |
| 20260509135344 | 56 | 117 | 0.9 | 2.6 | 0.00 | 0.02 | 0.02 | 94 | 1012.6 |
| 20260509134854 | 55 | 176 | 0.9 | 2.6 | 0.00 | 0.02 | 0.02 | 95 | 1012.7 |
| 20260509134624 | 54 | 240 | 0.9 | 2.6 | 0.00 | 0.02 | 0.02 | 96 | 1012.6 |
| 20260509134540 | 54 | 227 | 0.0 | 2.6 | 0.00 | 0.02 | 0.02 | 95 | 1012.0 |
| 20260509134346 | 55 | 340 | 0.9 | 1.7 | 0.01 | 0.02 | 0.02 | 96 | 1012.5 |
| 20260509133836 | 55 | 113 | 0.9 | 1.7 | 0.01 | 0.02 | 0.02 | 97 | 1012.6 |
| 20260509133347 | 54 | 229 | 0.9 | 3.5 | 0.01 | 0.02 | 0.02 | 97 | 1012.8 |
| 20260509133112 | 54 | 169 | 0.0 | 3.5 | 0.01 | 0.02 | 0.02 | 97 | 1012.9 |
| 20260509133038 | 54 | 169 | 0.0 | 3.5 | 0.01 | 0.02 | 0.02 | 97 | 1012.2 |
| 20260509132854 | 54 | 145 | 0.9 | 3.5 | 0.01 | 0.02 | 0.02 | 97 | 1013.0 |
| 20260509132345 | 54 | 130 | 0.0 | 2.6 | 0.01 | 0.02 | 0.02 | 97 | 1013.2 |
| 20260509131838 | 53 | 178 | 0.9 | 2.6 | 0.01 | 0.02 | 0.02 | 97 | 1013.0 |
| 20260509131622 | 53 | 157 | 0.0 | 1.7 | 0.01 | 0.02 | 0.02 | 97 | 1012.9 |
| 20260509131539 | 53 | 0 | 0.0 | 1.7 | 0.01 | 0.02 | 0.02 | 97 | 1012.1 |
| 20260509131348 | 53 | 157 | 0.9 | 1.7 | 0.01 | 0.02 | 0.02 | 97 | 1012.7 |
| 20260509130857 | 53 | 187 | 0.9 | 1.7 | 0.01 | 0.02 | 0.02 | 97 | 1012.9 |
| 20260509130347 | 52 | 162 | 0.0 | 0.9 | 0.01 | 0.02 | 0.02 | 97 | 1013.1 |
| 20260509130107 | 52 | 162 | 0.0 | 3.5 | 0.01 | 0.02 | 0.02 | 97 | 1013.2 |
| 20260509130039 | 52 | 0 | 0.0 | 3.5 | 0.01 | 0.02 | 0.02 | 97 | 1012.6 |
| 20260509125854 | 52 | 162 | 0.0 | 3.5 | 0.01 | 0.02 | 0.02 | 97 | 1013.2 |
| 20260509125343 | 52 | 234 | 2.6 | 3.5 | 0.01 | 0.02 | 0.02 | 97 | 1013.5 |
| 20260509124853 | 52 | 193 | 0.9 | 1.7 | 0.01 | 0.02 | 0.02 | 97 | 1013.1 |
| 20260509124536 | 51 | 30 | 0.0 | 1.7 | 0.01 | 0.02 | 0.02 | 97 | 1012.3 |
| 20260509124502 | 51 | 30 | 0.0 | 1.7 | 0.01 | 0.02 | 0.02 | 97 | 1013.1 |
| 20260509124401 | 52 | 30 | 0.0 | 1.7 | 0.00 | 0.01 | 0.01 | 97 | 1013.1 |
| 20260509123851 | 52 | 59 | 0.0 | 1.7 | 0.00 | 0.01 | 0.01 | 97 | 1013.1 |
| 20260509123340 | 52 | 59 | 0.9 | 2.6 | 0.00 | 0.01 | 0.01 | 97 | 1013.0 |
| 20260509123121 | 51 | 179 | 0.0 | 2.6 | 0.00 | 0.01 | 0.01 | 97 | 1013.4 |
| 20260509123037 | 51 | 179 | 0.0 | 3.5 | 0.00 | 0.01 | 0.01 | 97 | 1012.8 |
| 20260509122846 | 52 | 167 | 0.9 | 2.6 | 0.00 | 0.01 | 0.01 | 97 | 1013.3 |
| 20260509122336 | 52 | 180 | 0.9 | 2.6 | 0.00 | 0.01 | 0.01 | 97 | 1013.3 |
| 20260509121847 | 52 | 162 | 0.0 | 0.9 | 0.00 | 0.01 | 0.01 | 97 | 1013.1 |
| 20260509121615 | 51 | 162 | 0.0 | 0.9 | 0.00 | 0.01 | 0.01 | 97 | 1013.1 |
| 20260509121539 | 51 | 0 | 0.0 | 0.9 | 0.00 | 0.01 | 0.01 | 97 | 1012.5 |
| 20260509121338 | 51 | 162 | 0.0 | 0.9 | 0.00 | 0.01 | 0.01 | 97 | 1013.3 |
| 20260509120849 | 51 | 161 | 0.0 | 0.9 | 0.00 | 0.01 | 0.01 | 97 | 1013.4 |
| 20260509120340 | 51 | 154 | 0.0 | 2.6 | 0.00 | 0.01 | 0.01 | 97 | 1013.4 |
| 20260509120105 | 51 | 154 | 0.0 | 2.6 | 0.00 | 0.01 | 0.01 | 97 | 1013.4 |
| 20260509120044 | 51 | 0 | 0.9 | 3.5 | 0.00 | 0.01 | 0.01 | 97 | 1012.9 |
| 20260509115846 | 51 | 154 | 0.9 | 3.5 | 0.00 | 0.01 | 0.01 | 97 | 1013.4 |
| 20260509115337 | 51 | 207 | 0.0 | 2.6 | 0.00 | 0.01 | 0.01 | 97 | 1013.5 |
| 20260509114845 | 51 | 200 | 1.7 | 2.6 | 0.00 | 0.01 | 0.01 | 97 | 1013.7 |
| 20260509114614 | 50 | 280 | 0.0 | 1.7 | 0.00 | 0.01 | 0.01 | 97 | 1013.7 |
| 20260509114538 | 50 | 0 | 0.0 | 1.7 | 0.00 | 0.01 | 0.01 | 97 | 1013.0 |
| 20260509114417 | 51 | 343 | 0.0 | 1.7 | 0.00 | 0.01 | 0.01 | 97 | 1013.7 |
| 20260509113846 | 51 | 240 | 0.0 | 1.7 | 0.00 | 0.01 | 0.01 | 97 | 1013.5 |
| 20260509113356 | 51 | 240 | 0.0 | 1.7 | 0.00 | 0.01 | 0.01 | 97 | 1013.7 |
| 20260509113121 | 50 | 240 | 0.0 | 1.7 | 0.00 | 0.01 | 0.01 | 97 | 1013.7 |
| 20260509113044 | 50 | 0 | 0.0 | 1.7 | 0.00 | 0.01 | 0.01 | 97 | 1013.2 |
| 20260509112843 | 50 | 304 | 0.9 | 1.7 | 0.00 | 0.01 | 0.01 | 97 | 1013.6 |
| 20260509112353 | 50 | 355 | 0.0 | 2.6 | 0.00 | 0.01 | 0.01 | 97 | 1013.4 |
| 20260509111844 | 50 | 355 | 0.9 | 2.6 | 0.00 | 0.01 | 0.01 | 97 | 1013.5 |
| 20260509111612 | 50 | 247 | 0.9 | 2.6 | 0.00 | 0.01 | 0.01 | 97 | 1013.8 |
| 20260509111548 | 50 | 247 | 0.9 | 2.6 | 0.00 | 0.01 | 0.01 | 96 | 1013.3 |
| 20260509111415 | 50 | 273 | 0.9 | 1.7 | 0.00 | 0.01 | 0.01 | 97 | 1013.7 |
| 20260509110843 | 50 | 299 | 0.0 | 0.9 | 0.00 | 0.01 | 0.01 | 97 | 1013.3 |
| 20260509110354 | 50 | 298 | 0.0 | 0.9 | 0.00 | 0.01 | 0.01 | 97 | 1013.2 |
| 20260509110119 | 49 | 298 | 0.0 | 0.9 | 0.00 | 0.01 | 0.01 | 97 | 1013.3 |
| 20260509110042 | 49 | 0 | 0.0 | 0.9 | 0.00 | 0.01 | 0.01 | 96 | 1012.8 |
| 20260509105841 | 50 | 298 | 0.0 | 0.0 | 0.00 | 0.01 | 0.01 | 97 | 1013.3 |
| 20260509105352 | 50 | 298 | 0.0 | 0.0 | 0.00 | 0.01 | 0.01 | 97 | 1013.3 |
| 20260509104842 | 50 | 298 | 0.0 | 0.0 | 0.00 | 0.01 | 0.01 | 97 | 1013.3 |
| 20260509104613 | 49 | 298 | 0.0 | 0.9 | 0.00 | 0.01 | 0.01 | 97 | 1013.3 |
| 20260509104543 | 49 | 0 | 0.0 | 0.9 | 0.00 | 0.01 | 0.01 | 96 | 1012.7 |
| 20260509104354 | 49 | 298 | 0.0 | 0.9 | 0.00 | 0.01 | 0.01 | 97 | 1013.3 |
| 20260509103844 | 49 | 298 | 0.0 | 0.9 | 0.00 | 0.01 | 0.01 | 97 | 1013.2 |
| 20260509103356 | 49 | 298 | 0.0 | 0.0 | 0.00 | 0.01 | 0.01 | 97 | 1013.0 |
| 20260509103119 | 49 | 298 | 0.0 | 0.0 | 0.00 | 0.01 | 0.01 | 97 | 1013.0 |
| 20260509103039 | 49 | 0 | 0.0 | 0.0 | 0.00 | 0.01 | 0.01 | 96 | 1012.3 |
| 20260509102845 | 49 | 298 | 0.0 | 0.0 | 0.00 | 0.01 | 0.01 | 97 | 1013.0 |
| 20260509102355 | 49 | 298 | 0.0 | 0.9 | 0.00 | 0.01 | 0.01 | 97 | 1013.0 |
| 20260509101846 | 49 | 298 | 0.0 | 0.9 | 0.00 | 0.01 | 0.01 | 97 | 1012.9 |
| 20260509101611 | 49 | 298 | 0.0 | 0.9 | 0.00 | 0.01 | 0.01 | 97 | 1012.9 |
| 20260509101550 | 49 | 0 | 0.0 | 0.9 | 0.00 | 0.01 | 0.01 | 96 | 1012.2 |
| 20260509101337 | 49 | 298 | 0.0 | 0.9 | 0.00 | 0.01 | 0.01 | 97 | 1012.9 |
| 20260509100847 | 49 | 298 | 0.0 | 1.7 | 0.00 | 0.01 | 0.01 | 97 | 1012.9 |
| 20260509100358 | 49 | 298 | 0.9 | 1.7 | 0.00 | 0.01 | 0.01 | 97 | 1012.8 |
| 20260509100120 | 49 | 262 | 0.0 | 0.9 | 0.00 | 0.01 | 0.01 | 97 | 1012.9 |
| 20260509100038 | 49 | 0 | 0.0 | 0.9 | 0.00 | 0.01 | 0.01 | 96 | 1012.1 |
| 20260509095846 | 49 | 262 | 0.0 | 0.9 | 0.00 | 0.01 | 0.01 | 97 | 1012.9 |
| 20260509095336 | 49 | 262 | 0.0 | 0.9 | 0.00 | 0.01 | 0.01 | 97 | 1012.9 |
| 20260509094846 | 49 | 262 | 0.0 | 0.9 | 0.00 | 0.01 | 0.01 | 97 | 1013.1 |
| 20260509094614 | 49 | 262 | 0.0 | 0.9 | 0.00 | 0.01 | 0.01 | 97 | 1013.2 |
| 20260509094544 | 49 | 0 | 0.0 | 1.7 | 0.00 | 0.01 | 0.01 | 96 | 1012.4 |
| 20260509094417 | 49 | 262 | 0.9 | 0.9 | 0.00 | 0.01 | 0.01 | 96 | 1013.1 |
| 20260509093846 | 49 | 262 | 0.0 | 1.7 | 0.00 | 0.01 | 0.01 | 96 | 1013.2 |
| 20260509093356 | 49 | 262 | 0.0 | 1.7 | 0.00 | 0.01 | 0.01 | 96 | 1013.0 |
| 20260509093121 | 49 | 262 | 0.0 | 1.7 | 0.00 | 0.01 | 0.01 | 96 | 1013.0 |
| 20260509093053 | 49 | 0 | 0.0 | 1.7 | 0.00 | 0.01 | 0.01 | 96 | 1012.2 |
| 20260509092843 | 49 | 262 | 0.0 | 1.7 | 0.00 | 0.01 | 0.01 | 96 | 1013.0 |
| 20260509092353 | 49 | 262 | 0.0 | 1.7 | 0.00 | 0.01 | 0.01 | 96 | 1013.0 |
| 20260509091905 | 49 | 262 | 0.0 | 0.9 | 0.00 | 0.01 | 0.01 | 96 | 1013.1 |
| 20260509091613 | 49 | 262 | 0.0 | 0.9 | 0.00 | 0.01 | 0.01 | 96 | 1013.2 |
| 20260509091540 | 49 | 262 | 0.0 | 0.9 | 0.00 | 0.01 | 0.01 | 96 | 1012.4 |
| 20260509091355 | 49 | 262 | 0.0 | 0.9 | 0.00 | 0.01 | 0.01 | 96 | 1013.1 |
| 20260509090845 | 49 | 262 | 0.0 | 0.9 | 0.00 | 0.01 | 0.01 | 96 | 1013.0 |
| 20260509090356 | 49 | 262 | 0.0 | 0.9 | 0.00 | 0.01 | 0.01 | 96 | 1013.0 |
| 20260509090120 | 49 | 262 | 0.0 | 0.0 | 0.00 | 0.01 | 0.01 | 96 | 1013.1 |
| 20260509090039 | 49 | 0 | 0.0 | 0.0 | 0.00 | 0.01 | 0.01 | 96 | 1012.3 |
| 20260509085842 | 49 | 262 | 0.0 | 0.0 | 0.00 | 0.02 | 0.01 | 96 | 1013.0 |
| 20260509085352 | 49 | 262 | 0.0 | 0.9 | 0.00 | 0.02 | 0.01 | 96 | 1013.1 |
| 20260509084843 | 49 | 262 | 0.0 | 0.9 | 0.00 | 0.02 | 0.01 | 96 | 1013.2 |
| 20260509084611 | 49 | 262 | 0.0 | 0.9 | 0.00 | 0.02 | 0.01 | 96 | 1013.2 |
| 20260509084549 | 49 | 0 | 0.0 | 0.9 | 0.00 | 0.02 | 0.01 | 96 | 1012.4 |
| 20260509084414 | 49 | 262 | 0.0 | 0.9 | 0.00 | 0.02 | 0.01 | 96 | 1013.1 |
| 20260509083905 | 49 | 262 | 0.0 | 0.9 | 0.00 | 0.02 | 0.01 | 96 | 1013.1 |
| 20260509083416 | 49 | 262 | 0.0 | 0.0 | 0.00 | 0.02 | 0.01 | 96 | 1013.1 |
| 20260509083119 | 49 | 262 | 0.0 | 0.9 | 0.00 | 0.02 | 0.01 | 96 | 1013.2 |
| 20260509083042 | 49 | 0 | 0.0 | 0.9 | 0.00 | 0.02 | 0.01 | 96 | 1012.4 |
| 20260509082842 | 49 | 262 | 0.0 | 0.9 | 0.00 | 0.02 | 0.01 | 96 | 1013.1 |
| 20260509082351 | 49 | 262 | 0.0 | 0.9 | 0.00 | 0.02 | 0.01 | 96 | 1013.1 |
| 20260509081841 | 49 | 262 | 0.0 | 0.0 | 0.00 | 0.02 | 0.01 | 96 | 1013.3 |
| 20260509081610 | 49 | 262 | 0.0 | 0.0 | 0.00 | 0.02 | 0.01 | 96 | 1013.4 |
| 20260509081543 | 49 | 0 | 0.0 | 0.0 | 0.00 | 0.02 | 0.01 | 95 | 1012.6 |
| 20260509081413 | 49 | 262 | 0.0 | 0.0 | 0.00 | 0.02 | 0.01 | 96 | 1013.3 |
| 20260509080842 | 49 | 262 | 0.0 | 0.9 | 0.00 | 0.02 | 0.01 | 96 | 1013.3 |
| 20260509080414 | 49 | 262 | 0.0 | 0.9 | 0.01 | 0.02 | 0.01 | 96 | 1013.3 |
| 20260509080140 | 48 | 262 | 0.0 | 0.9 | 0.01 | 0.02 | 0.01 | 96 | 1013.4 |
| 20260509080053 | 48 | 0 | 0.0 | 0.9 | 0.01 | 0.02 | 0.01 | 95 | 1012.6 |
| 20260509075840 | 49 | 262 | 0.0 | 0.0 | 0.01 | 0.03 | 0.01 | 96 | 1013.3 |
| 20260509075414 | 49 | 262 | 0.0 | 0.9 | 0.01 | 0.03 | 0.01 | 96 | 1013.2 |
| 20260509074842 | 49 | 262 | 0.0 | 0.0 | 0.01 | 0.03 | 0.01 | 96 | 1013.2 |
| 20260509074611 | 48 | 262 | 0.0 | 0.0 | 0.01 | 0.03 | 0.01 | 96 | 1013.3 |
| 20260509074538 | 48 | 0 | 0.0 | 0.9 | 0.01 | 0.03 | 0.01 | 95 | 1012.5 |
| 20260509074353 | 49 | 262 | 0.0 | 0.9 | 0.01 | 0.03 | 0.01 | 96 | 1013.2 |
| 20260509073844 | 49 | 262 | 0.0 | 0.9 | 0.01 | 0.03 | 0.01 | 95 | 1013.2 |
| 20260509073356 | 49 | 262 | 0.0 | 0.0 | 0.01 | 0.03 | 0.01 | 95 | 1013.2 |
| 20260509073217 | 48 | 262 | 0.0 | 0.0 | 0.01 | 0.03 | 0.01 | 95 | 1013.2 |
| 20260509073045 | 48 | 0 | 0.0 | 0.9 | 0.01 | 0.03 | 0.01 | 95 | 1012.4 |
| 20260509072842 | 49 | 262 | 0.0 | 0.0 | 0.01 | 0.03 | 0.01 | 95 | 1013.0 |
| 20260509072352 | 49 | 262 | 0.0 | 0.9 | 0.01 | 0.03 | 0.01 | 95 | 1013.0 |
| 20260509071844 | 49 | 262 | 0.0 | 0.9 | 0.01 | 0.03 | 0.01 | 95 | 1013.0 |
| 20260509071611 | 48 | 262 | 0.0 | 0.9 | 0.01 | 0.03 | 0.01 | 95 | 1013.0 |
| 20260509071540 | 48 | 0 | 0.0 | 0.9 | 0.01 | 0.03 | 0.01 | 95 | 1012.4 |
| 20260509071353 | 49 | 262 | 0.0 | 0.9 | 0.01 | 0.03 | 0.01 | 95 | 1013.0 |
| 20260509070843 | 49 | 262 | 0.0 | 0.0 | 0.01 | 0.03 | 0.01 | 95 | 1013.0 |
| 20260509070355 | 49 | 262 | 0.0 | 0.0 | 0.00 | 0.02 | 0.00 | 95 | 1013.2 |
| 20260509070120 | 48 | 262 | 0.0 | 0.0 | 0.00 | 0.02 | 0.00 | 95 | 1013.3 |
| 20260509070044 | 48 | 0 | 0.0 | 0.0 | 0.00 | 0.02 | 0.00 | 94 | 1012.6 |
| 20260509065846 | 48 | 262 | 0.0 | 0.0 | 0.00 | 0.05 | 0.00 | 95 | 1013.3 |
| 20260509065356 | 48 | 262 | 0.0 | 0.0 | 0.00 | 0.05 | 0.00 | 95 | 1013.2 |
| 20260509064845 | 48 | 262 | 0.0 | 0.0 | 0.00 | 0.05 | 0.00 | 95 | 1013.2 |
| 20260509064609 | 48 | 262 | 0.0 | 0.0 | 0.00 | 0.05 | 0.00 | 95 | 1013.2 |
| 20260509064541 | 48 | 0 | 0.0 | 0.0 | 0.00 | 0.05 | 0.00 | 94 | 1012.5 |
| 20260509064356 | 48 | 262 | 0.0 | 0.0 | 0.00 | 0.05 | 0.00 | 95 | 1013.1 |
| 20260509063906 | 48 | 262 | 0.0 | 0.0 | 0.00 | 0.05 | 0.00 | 94 | 1013.2 |
| 20260509063356 | 48 | 262 | 0.0 | 0.9 | 0.00 | 0.05 | 0.00 | 94 | 1013.1 |
| 20260509063038 | 48 | 0 | 0.0 | 0.9 | 0.00 | 0.05 | 0.00 | 94 | 1012.6 |
| 20260509063002 | 48 | 262 | 0.0 | 0.9 | 0.00 | 0.05 | 0.00 | 94 | 1013.3 |
| 20260509062902 | 48 | 262 | 0.0 | 0.9 | 0.00 | 0.05 | 0.00 | 94 | 1013.3 |
| 20260509062350 | 48 | 262 | 0.0 | 0.9 | 0.00 | 0.05 | 0.00 | 94 | 1013.3 |
| 20260509061841 | 48 | 262 | 0.0 | 0.9 | 0.00 | 0.05 | 0.00 | 94 | 1013.3 |
| 20260509061605 | 48 | 262 | 0.0 | 0.9 | 0.00 | 0.05 | 0.00 | 94 | 1013.5 |
| 20260509061536 | 48 | 262 | 0.0 | 0.9 | 0.00 | 0.05 | 0.00 | 93 | 1012.8 |
| 20260509061352 | 48 | 262 | 0.0 | 0.9 | 0.00 | 0.05 | 0.00 | 94 | 1013.4 |
| 20260509060841 | 48 | 262 | 0.0 | 0.9 | 0.00 | 0.05 | 0.00 | 93 | 1013.4 |
| 20260509060412 | 48 | 262 | 0.0 | 0.9 | 0.00 | 0.05 | 0.00 | 93 | 1013.8 |
| 20260509060111 | 47 | 262 | 0.0 | 0.9 | 0.00 | 0.05 | 0.00 | 93 | 1013.9 |
| 20260509060036 | 47 | 0 | 0.0 | 1.7 | 0.00 | 0.05 | 0.00 | 93 | 1013.2 |
| 20260509055838 | 48 | 262 | 0.0 | 0.9 | 0.00 | 0.05 | 0.00 | 93 | 1013.8 |
| 20260509055349 | 48 | 262 | 0.0 | 1.7 | 0.00 | 0.05 | 0.00 | 93 | 1013.8 |
| 20260509054839 | 48 | 262 | 1.7 | 1.7 | 0.00 | 0.05 | 0.00 | 93 | 1013.8 |
| 20260509054607 | 47 | 274 | 0.0 | 1.7 | 0.00 | 0.05 | 0.00 | 93 | 1013.7 |
| 20260509054547 | 47 | 330 | 0.0 | 0.9 | 0.00 | 0.05 | 0.00 | 92 | 1013.1 |
| 20260509054411 | 48 | 330 | 0.0 | 0.0 | 0.00 | 0.05 | 0.00 | 92 | 1013.5 |
| 20260509053840 | 48 | 330 | 0.0 | 0.0 | 0.00 | 0.05 | 0.00 | 92 | 1013.5 |
| 20260509053351 | 48 | 330 | 0.0 | 0.0 | 0.00 | 0.05 | 0.00 | 92 | 1013.7 |
| 20260509053117 | 47 | 330 | 0.0 | 0.0 | 0.00 | 0.05 | 0.00 | 92 | 1013.8 |
| 20260509053041 | 47 | 0 | 0.0 | 0.9 | 0.00 | 0.05 | 0.00 | 92 | 1013.3 |
| 20260509052838 | 48 | 330 | 0.0 | 0.9 | 0.00 | 0.05 | 0.00 | 92 | 1013.8 |
| 20260509052348 | 47 | 330 | 0.0 | 0.9 | 0.00 | 0.05 | 0.00 | 92 | 1013.9 |
| 20260509051836 | 47 | 330 | 0.0 | 0.9 | 0.00 | 0.05 | 0.00 | 92 | 1013.8 |
| 20260509051606 | 47 | 330 | 0.0 | 1.7 | 0.00 | 0.05 | 0.00 | 92 | 1013.9 |
| 20260509051548 | 47 | 0 | 0.0 | 1.7 | 0.00 | 0.05 | 0.00 | 91 | 1013.2 |
| 20260509051408 | 47 | 331 | 0.0 | 1.7 | 0.00 | 0.05 | 0.00 | 92 | 1013.8 |
| 20260509050837 | 47 | 335 | 0.9 | 1.7 | 0.00 | 0.05 | 0.00 | 91 | 1013.7 |
| 20260509050349 | 47 | 351 | 0.0 | 0.9 | 0.00 | 0.05 | 0.00 | 91 | 1013.7 |
| 20260509050113 | 47 | 351 | 0.0 | 0.9 | 0.00 | 0.05 | 0.00 | 91 | 1013.6 |
| 20260509050043 | 47 | 0 | 0.0 | 0.9 | 0.00 | 0.05 | 0.00 | 91 | 1013.1 |
| 20260509045916 | 47 | 351 | 0.0 | 0.9 | 0.00 | 0.05 | 0.00 | 91 | 1013.6 |
| 20260509045345 | 47 | 351 | 0.0 | 0.9 | 0.00 | 0.05 | 0.00 | 91 | 1013.7 |
| 20260509044854 | 48 | 351 | 0.0 | 0.0 | 0.00 | 0.05 | 0.00 | 90 | 1013.7 |
| 20260509044536 | 47 | 0 | 0.0 | 0.0 | 0.00 | 0.05 | 0.00 | 90 | 1013.0 |
| 20260509044504 | 47 | 351 | 0.0 | 0.0 | 0.00 | 0.05 | 0.00 | 90 | 1013.6 |
| 20260509044404 | 48 | 351 | 0.0 | 0.0 | 0.00 | 0.05 | 0.00 | 90 | 1013.6 |
| 20260509043853 | 48 | 351 | 0.0 | 0.9 | 0.00 | 0.05 | 0.00 | 90 | 1013.7 |
| 20260509043343 | 48 | 351 | 0.0 | 0.9 | 0.00 | 0.05 | 0.00 | 90 | 1013.7 |
| 20260509043108 | 48 | 351 | 0.0 | 0.9 | 0.00 | 0.05 | 0.00 | 90 | 1013.8 |
| 20260509043045 | 48 | 0 | 0.0 | 0.9 | 0.00 | 0.05 | 0.00 | 89 | 1013.3 |
| 20260509042850 | 48 | 351 | 0.0 | 0.9 | 0.00 | 0.05 | 0.00 | 90 | 1013.8 |
| 20260509042339 | 48 | 351 | 0.0 | 0.9 | 0.00 | 0.05 | 0.00 | 89 | 1013.8 |
| 20260509041911 | 49 | 351 | 0.0 | 0.9 | 0.00 | 0.05 | 0.00 | 89 | 1013.7 |
| 20260509041618 | 48 | 351 | 0.0 | 0.9 | 0.00 | 0.05 | 0.00 | 89 | 1013.8 |
| 20260509041541 | 48 | 0 | 0.0 | 0.0 | 0.00 | 0.05 | 0.00 | 88 | 1013.2 |
| 20260509041340 | 49 | 351 | 0.0 | 0.0 | 0.00 | 0.05 | 0.00 | 89 | 1013.8 |
| 20260509040850 | 49 | 351 | 0.0 | 0.0 | 0.00 | 0.05 | 0.00 | 89 | 1013.8 |
| 20260509040342 | 49 | 351 | 0.0 | 0.0 | 0.00 | 0.05 | 0.00 | 88 | 1013.7 |
| 20260509040112 | 49 | 351 | 0.0 | 0.0 | 0.00 | 0.05 | 0.00 | 88 | 1013.9 |
| 20260509040042 | 49 | 0 | 0.0 | 0.0 | 0.00 | 0.05 | 0.00 | 88 | 1013.3 |
| 20260509035911 | 50 | 351 | 0.0 | 0.0 | 0.00 | 0.05 | 0.05 | 88 | 1013.9 |
| 20260509035339 | 50 | 351 | 0.0 | 0.0 | 0.00 | 0.05 | 0.05 | 88 | 1013.8 |
| 20260509034850 | 50 | 351 | 0.0 | 0.0 | 0.00 | 0.05 | 0.05 | 88 | 1013.9 |
| 20260509034617 | 50 | 351 | 0.0 | 0.0 | 0.00 | 0.05 | 0.05 | 88 | 1014.0 |
| 20260509034543 | 50 | 0 | 0.0 | 0.0 | 0.00 | 0.05 | 0.05 | 88 | 1013.3 |
| 20260509034340 | 50 | 351 | 0.0 | 0.0 | 0.00 | 0.05 | 0.05 | 88 | 1013.9 |
| 20260509033910 | 50 | 351 | 0.0 | 0.9 | 0.00 | 0.05 | 0.05 | 88 | 1013.9 |
| 20260509033340 | 50 | 351 | 0.0 | 0.0 | 0.00 | 0.05 | 0.05 | 88 | 1014.0 |
| 20260509033106 | 50 | 351 | 0.0 | 0.0 | 0.00 | 0.05 | 0.05 | 87 | 1014.1 |
| 20260509033036 | 50 | 0 | 0.0 | 0.0 | 0.00 | 0.05 | 0.05 | 87 | 1013.3 |
| 20260509032847 | 50 | 351 | 0.0 | 0.0 | 0.00 | 0.05 | 0.05 | 87 | 1013.9 |
| 20260509032336 | 50 | 351 | 0.0 | 0.0 | 0.00 | 0.05 | 0.05 | 87 | 1013.9 |
| 20260509031848 | 50 | 351 | 0.0 | 0.0 | 0.00 | 0.05 | 0.05 | 87 | 1013.9 |
| 20260509031616 | 50 | 351 | 0.0 | 0.0 | 0.00 | 0.05 | 0.05 | 87 | 1013.9 |
| 20260509031545 | 50 | 0 | 0.0 | 0.9 | 0.00 | 0.05 | 0.05 | 87 | 1013.2 |
| 20260509031339 | 50 | 351 | 0.0 | 0.9 | 0.00 | 0.05 | 0.05 | 87 | 1013.9 |
| 20260509030849 | 50 | 351 | 0.0 | 0.9 | 0.00 | 0.05 | 0.05 | 87 | 1013.9 |
| 20260509030344 | 50 | 351 | 0.0 | 0.0 | 0.00 | 0.05 | 0.05 | 87 | 1013.9 |
| 20260509030103 | 50 | 351 | 0.0 | 0.0 | 0.00 | 0.05 | 0.05 | 86 | 1014.0 |
| 20260509030040 | 50 | 0 | 0.0 | 0.0 | 0.00 | 0.05 | 0.05 | 86 | 1013.3 |
| 20260509025851 | 50 | 351 | 0.0 | 0.0 | 0.00 | 0.05 | 0.05 | 86 | 1013.9 |
| 20260509025341 | 50 | 351 | 0.0 | 0.0 | 0.00 | 0.05 | 0.05 | 86 | 1013.9 |
| 20260509024849 | 50 | 351 | 0.0 | 0.0 | 0.00 | 0.05 | 0.05 | 86 | 1013.8 |
| 20260509024615 | 50 | 351 | 0.0 | 0.0 | 0.00 | 0.05 | 0.05 | 86 | 1013.9 |
| 20260509024539 | 50 | 0 | 0.0 | 0.0 | 0.00 | 0.05 | 0.05 | 85 | 1013.1 |
| 20260509024341 | 50 | 351 | 0.0 | 0.0 | 0.00 | 0.05 | 0.05 | 86 | 1013.7 |
| 20260509023851 | 50 | 351 | 0.0 | 0.0 | 0.00 | 0.05 | 0.05 | 85 | 1013.7 |
| 20260509023358 | 50 | 351 | 284.2 | 284.2 | 0.00 | 0.00 | 0.05 | 85 | 1013.6 |
| 20260509023112 | 50 | 351 | 0.0 | 0.0 | 0.00 | 0.05 | 0.05 | 85 | 1013.7 |
| 20260509023041 | 50 | 0 | 0.0 | 0.0 | 0.00 | 0.05 | 0.05 | 85 | 1013.0 |
| 20260509022839 | 50 | 351 | 0.0 | 0.0 | 0.00 | 0.05 | 0.05 | 85 | 1013.6 |
| 20260509022409 | 50 | 351 | 0.0 | 0.0 | 0.00 | 0.05 | 0.05 | 85 | 1013.7 |
| 20260509021837 | 50 | 351 | 0.0 | 0.0 | 0.00 | 0.05 | 0.05 | 85 | 1013.5 |
| 20260509021601 | 50 | 351 | 0.0 | 0.0 | 0.00 | 0.05 | 0.05 | 84 | 1013.6 |
| 20260509021538 | 50 | 0 | 0.0 | 0.0 | 0.00 | 0.05 | 0.05 | 84 | 1013.0 |
| 20260509021348 | 50 | 351 | 0.0 | 0.0 | 0.00 | 0.05 | 0.05 | 84 | 1013.5 |
| 20260509020837 | 50 | 351 | 0.0 | 0.0 | 0.00 | 0.05 | 0.05 | 84 | 1013.4 |
| 20260509020348 | 50 | 351 | 0.0 | 0.0 | 0.00 | 0.05 | 0.05 | 84 | 1013.3 |
| 20260509020112 | 50 | 351 | 0.0 | 0.0 | 0.00 | 0.05 | 0.05 | 83 | 1013.4 |
| 20260509020045 | 50 | 0 | 0.0 | 0.0 | 0.00 | 0.05 | 0.05 | 83 | 1012.6 |
| 20260509015854 | 50 | 351 | 0.0 | 0.0 | 0.00 | 0.05 | 0.05 | 83 | 1013.2 |
| 20260509015345 | 50 | 351 | 0.0 | 0.0 | 0.00 | 0.05 | 0.05 | 83 | 1013.2 |
| 20260509014835 | 50 | 351 | 0.0 | 0.0 | 0.00 | 0.05 | 0.05 | 83 | 1013.2 |
| 20260509014603 | 50 | 351 | 0.0 | 0.0 | 0.00 | 0.05 | 0.05 | 83 | 1013.2 |
| 20260509014545 | 50 | 0 | 0.0 | 0.0 | 0.00 | 0.05 | 0.05 | 82 | 1012.4 |
| 20260509014344 | 50 | 351 | 0.0 | 0.0 | 0.00 | 0.05 | 0.05 | 83 | 1013.1 |
| 20260509013835 | 50 | 351 | 0.0 | 0.9 | 0.00 | 0.05 | 0.05 | 82 | 1013.0 |
| 20260509013346 | 50 | 351 | 0.0 | 1.7 | 0.00 | 0.05 | 0.05 | 82 | 1013.0 |
| 20260509013110 | 50 | 351 | 0.0 | 1.7 | 0.00 | 0.05 | 0.05 | 83 | 1013.1 |
| 20260509013048 | 50 | 351 | 0.0 | 1.7 | 0.00 | 0.05 | 0.05 | 82 | 1012.3 |
| 20260509012852 | 50 | 351 | 0.9 | 1.7 | 0.00 | 0.05 | 0.05 | 83 | 1012.9 |
| 20260509012341 | 50 | 351 | 0.9 | 1.7 | 0.00 | 0.05 | 0.05 | 82 | 1012.9 |
| 20260509011852 | 50 | 257 | 0.0 | 0.9 | 0.00 | 0.05 | 0.05 | 82 | 1012.9 |
| 20260509011620 | 50 | 257 | 0.0 | 1.7 | 0.00 | 0.05 | 0.05 | 82 | 1013.0 |
| 20260509011542 | 50 | 0 | 0.0 | 1.7 | 0.00 | 0.05 | 0.05 | 81 | 1012.1 |
| 20260509011342 | 50 | 257 | 0.0 | 1.7 | 0.00 | 0.05 | 0.05 | 81 | 1012.9 |
| 20260509010853 | 51 | 257 | 0.9 | 1.7 | 0.00 | 0.05 | 0.05 | 81 | 1012.8 |
| 20260509010344 | 51 | 257 | 0.0 | 0.9 | 0.00 | 0.05 | 0.05 | 80 | 1012.8 |
| 20260509010110 | 50 | 257 | 0.0 | 0.9 | 0.00 | 0.05 | 0.05 | 80 | 1012.9 |
| 20260509010038 | 50 | 0 | 0.0 | 0.9 | 0.00 | 0.05 | 0.05 | 79 | 1012.1 |
| 20260509005850 | 51 | 257 | 0.0 | 0.9 | 0.00 | 0.05 | 0.05 | 80 | 1012.8 |
| 20260509005341 | 51 | 257 | 0.0 | 0.0 | 0.00 | 0.05 | 0.05 | 79 | 1012.8 |
| 20260509004852 | 51 | 257 | 0.0 | 0.0 | 0.00 | 0.05 | 0.05 | 79 | 1012.7 |
| 20260509004538 | 51 | 0 | 0.0 | 0.0 | 0.00 | 0.05 | 0.05 | 78 | 1011.9 |
| 20260509004509 | 51 | 257 | 0.0 | 0.0 | 0.00 | 0.05 | 0.05 | 78 | 1012.6 |
| 20260509004402 | 51 | 257 | 0.0 | 0.0 | 0.00 | 0.05 | 0.05 | 78 | 1012.6 |
| 20260509003853 | 52 | 257 | 0.0 | 0.0 | 0.00 | 0.05 | 0.05 | 78 | 1012.4 |
| 20260509003404 | 52 | 257 | 0.0 | 0.0 | 0.00 | 0.05 | 0.05 | 77 | 1012.4 |
| 20260509003109 | 52 | 257 | 0.0 | 0.0 | 0.00 | 0.05 | 0.05 | 77 | 1012.5 |
| 20260509003045 | 52 | 0 | 0.0 | 0.0 | 0.00 | 0.05 | 0.05 | 76 | 1011.7 |
| 20260509002911 | 52 | 257 | 0.0 | 0.0 | 0.00 | 0.05 | 0.05 | 76 | 1012.3 |
| 20260509002340 | 53 | 257 | 0.0 | 0.9 | 0.00 | 0.05 | 0.05 | 75 | 1012.3 |
| 20260509001850 | 53 | 257 | 0.0 | 0.9 | 0.00 | 0.05 | 0.05 | 74 | 1012.2 |
| 20260509001618 | 53 | 257 | 0.0 | 0.9 | 0.00 | 0.05 | 0.05 | 74 | 1012.3 |
| 20260509001543 | 53 | 0 | 0.0 | 0.9 | 0.00 | 0.05 | 0.05 | 73 | 1011.5 |
| 20260509001338 | 54 | 257 | 0.0 | 0.9 | 0.00 | 0.05 | 0.05 | 73 | 1012.3 |
| 20260509000849 | 54 | 257 | 0.0 | 0.9 | 0.00 | 0.05 | 0.05 | 72 | 1012.3 |
| 20260509000344 | 55 | 257 | 0.0 | 0.9 | 0.00 | 0.05 | 0.05 | 71 | 1012.3 |
| 20260509000106 | 54 | 257 | 0.0 | 0.9 | 0.00 | 0.05 | 0.05 | 70 | 1012.4 |
| 20260509000039 | 55 | 0 | 0.0 | 0.9 | 0.00 | 0.05 | 0.05 | 70 | 1011.6 |
| 20260508235850 | 55 | 257 | 0.0 | 0.9 | 0.00 | 0.05 | 0.05 | 70 | 1012.3 |
| 20260508235340 | 56 | 257 | 0.0 | 0.9 | 0.00 | 0.05 | 0.05 | 69 | 1012.2 |
| 20260508234851 | 56 | 257 | 0.0 | 0.9 | 0.00 | 0.05 | 0.05 | 68 | 1012.1 |
| 20260508234615 | 56 | 257 | 0.0 | 0.9 | 0.00 | 0.05 | 0.05 | 68 | 1012.1 |
| 20260508234540 | 56 | 0 | 0.0 | 0.9 | 0.00 | 0.05 | 0.05 | 67 | 1011.4 |
| 20260508234340 | 56 | 257 | 0.0 | 0.9 | 0.00 | 0.05 | 0.05 | 68 | 1012.0 |
| 20260508233852 | 57 | 257 | 0.0 | 0.9 | 0.00 | 0.05 | 0.05 | 68 | 1011.9 |
| 20260508233344 | 57 | 257 | 0.0 | 0.9 | 0.00 | 0.05 | 0.05 | 66 | 1012.0 |
| 20260508233143 | 56 | 257 | 0.0 | 0.9 | 0.00 | 0.05 | 0.05 | 66 | 1012.1 |
| 20260508233048 | 56 | 0 | 0.0 | 2.6 | 0.00 | 0.05 | 0.05 | 65 | 1011.4 |
| 20260508232851 | 57 | 259 | 0.0 | 0.9 | 0.00 | 0.05 | 0.05 | 66 | 1012.0 |
| 20260508232401 | 57 | 231 | 0.9 | 2.6 | 0.00 | 0.05 | 0.05 | 64 | 1012.0 |
| 20260508231850 | 57 | 222 | 1.7 | 2.6 | 0.00 | 0.05 | 0.05 | 65 | 1012.1 |
| 20260508231615 | 57 | 248 | 0.9 | 1.7 | 0.00 | 0.05 | 0.05 | 66 | 1012.1 |
| 20260508231543 | 57 | 244 | 0.0 | 1.7 | 0.00 | 0.05 | 0.05 | 64 | 1011.4 |
| 20260508231340 | 57 | 286 | 0.0 | 1.7 | 0.00 | 0.05 | 0.05 | 66 | 1012.0 |
| 20260508230852 | 57 | 286 | 0.9 | 1.7 | 0.00 | 0.05 | 0.05 | 65 | 1011.9 |
| 20260508230343 | 57 | 221 | 0.9 | 1.7 | 0.00 | 0.05 | 0.05 | 64 | 1011.8 |
| 20260508230107 | 57 | 268 | 0.0 | 3.5 | 0.00 | 0.05 | 0.05 | 65 | 1011.9 |
| 20260508230047 | 57 | 0 | 0.0 | 3.5 | 0.00 | 0.05 | 0.05 | 64 | 1011.1 |
| 20260508225849 | 57 | 272 | 0.9 | 3.5 | 0.00 | 0.05 | 0.05 | 65 | 1011.7 |
| 20260508225340 | 58 | 284 | 1.7 | 4.3 | 0.00 | 0.05 | 0.05 | 63 | 1011.6 |
| 20260508224851 | 58 | 304 | 0.9 | 4.3 | 0.00 | 0.05 | 0.05 | 62 | 1011.6 |
| 20260508224617 | 57 | 296 | 0.9 | 3.5 | 0.00 | 0.05 | 0.05 | 62 | 1011.7 |
| 20260508224543 | 57 | 306 | 0.9 | 7.0 | 0.00 | 0.05 | 0.05 | 62 | 1011.0 |
| 20260508224340 | 58 | 330 | 2.6 | 7.0 | 0.00 | 0.05 | 0.05 | 63 | 1011.6 |
| 20260508223913 | 58 | 284 | 1.7 | 7.0 | 0.00 | 0.05 | 0.05 | 64 | 1011.7 |
| 20260508223344 | 58 | 334 | 1.7 | 6.1 | 0.00 | 0.05 | 0.05 | 63 | 1011.7 |
| 20260508223107 | 58 | 217 | 0.9 | 6.1 | 0.00 | 0.05 | 0.05 | 63 | 1011.7 |
| 20260508223040 | 58 | 211 | 0.9 | 6.1 | 0.00 | 0.05 | 0.05 | 62 | 1011.1 |
| 20260508222851 | 58 | 294 | 1.7 | 6.1 | 0.00 | 0.05 | 0.05 | 64 | 1011.6 |
| 20260508222342 | 58 | 236 | 0.9 | 7.8 | 0.00 | 0.05 | 0.05 | 62 | 1011.6 |
| 20260508221852 | 58 | 252 | 3.5 | 7.8 | 0.00 | 0.05 | 0.05 | 62 | 1011.6 |